North Highlands, CA

10:20 AM PDT on September 27, 2016 (GMT -0700)
McClellan

Weather History for KMCC - March, 2013

Change the Weather History Date:

Tuesday, March 12, 2013

  Actual Average (KMHR) Record (KMHR)
Temperature  
Mean Temperature 58 °F -  
Max Temperature 73 °F 63 °F 80 °F (2007)
Min Temperature 42 °F 39 °F 35 °F (2009)
Degree Days  
Heating Degree Days 8    
Growing Degree Days 8 (Base 50)    
Moisture  
Dew Point 45 °F    
Average Humidity 62    
Maximum Humidity 93    
Minimum Humidity 35    
Precipitation  
Precipitation 0.00 in - - ()
Sea Level Pressure  
Sea Level Pressure 30.13 in    
Wind  
Wind Speed 2 mph (North)    
Max Wind Speed 7 mph    
Max Gust Speed -    
Visibility 10 miles    
Events      
Averages and records for this station are not official NWS values.
T = Trace of Precipitation, MM = Missing Value Source: NWS Daily Summary

Daily Weather History Graph

Daily Weather History Graph

Search for Another Location

Airport or City:

Trip Planner

Search our weather history database for the weather conditions in past years. The results will help you decide how hot, cold, wet, or windy it might be!

Date:

Astronomy

Mar. 12, 2013 Rise Set
Actual Time 7:20 AM PDT 7:10 PM PDT
Civil Twilight 6:54 AM PDT 7:36 PM PDT
Nautical Twilight 6:23 AM PDT 8:07 PM PDT
Astronomical Twilight 5:52 AM PDT 8:38 PM PDT
Moon 7:31 AM PDT (3/12) 8:29 PM PDT (3/12)
Length of Visible Light 12h 42m
Length of Day
11h 49m
New Moon, 1% of the Moon is Illuminated
Mar 12
New Moon
Mar 19
First Quarter
Mar 27
Full
Apr 2
Last Quarter
Apr 10
New

Hourly Weather History & Observations

Time (PDT) Temp. Windchill Dew Point Humidity Pressure Visibility Wind Dir Wind Speed Gust Speed Precip Events Conditions
12:10 AM 53.6 °F - 44.6 °F 72% 30.12 in 10.0 mi ESE 3.5 mph - N/A   Clear
12:30 AM 53.6 °F - 44.6 °F 72% 30.13 in 10.0 mi Calm Calm - N/A   Clear
12:50 AM 53.6 °F - 44.6 °F 72% 30.12 in 10.0 mi ESE 3.5 mph - N/A   Clear
1:10 AM 51.8 °F - 44.6 °F 76% 30.12 in 9.0 mi Calm Calm - N/A   Clear
1:30 AM 53.6 °F - 44.6 °F 72% 30.12 in 10.0 mi East 3.5 mph - N/A   Clear
1:50 AM 53.6 °F - 44.6 °F 72% 30.13 in 10.0 mi East 4.6 mph - N/A   Clear
2:10 AM 51.8 °F - 44.6 °F 76% 30.13 in 10.0 mi Calm Calm - N/A   Clear
2:30 AM 50.0 °F - 44.6 °F 82% 30.14 in 10.0 mi SSE 4.6 mph - N/A   Clear
2:50 AM 50.0 °F - 44.6 °F 82% 30.13 in 10.0 mi SE 4.6 mph - N/A   Clear
3:10 AM 50.0 °F - 44.6 °F 82% 30.13 in 10.0 mi SE 4.6 mph - N/A   Clear
3:30 AM 50.0 °F - 44.6 °F 82% 30.13 in 10.0 mi SE 3.5 mph - N/A   Clear
3:50 AM 48.2 °F - 44.6 °F 87% 30.12 in 10.0 mi SSE 3.5 mph - N/A   Clear
4:10 AM 48.2 °F - 42.8 °F 82% 30.12 in 10.0 mi SSE 3.5 mph - N/A   Clear
4:30 AM 48.2 °F - 42.8 °F 82% 30.13 in 10.0 mi SSE 3.5 mph - N/A   Clear
4:50 AM 48.2 °F - 42.8 °F 82% 30.13 in 10.0 mi SE 3.5 mph - N/A   Clear
5:10 AM 48.2 °F - 42.8 °F 82% 30.13 in 10.0 mi Calm Calm - N/A   Clear
5:30 AM 46.4 °F - 42.8 °F 87% 30.13 in 10.0 mi Calm Calm - N/A   Clear
5:50 AM 46.4 °F - 42.8 °F 87% 30.14 in 10.0 mi Calm Calm - N/A   Clear
6:10 AM 46.4 °F 44.3 °F 41.0 °F 81% 30.14 in 10.0 mi ENE 4.6 mph - N/A   Clear
6:30 AM 44.6 °F - 39.2 °F 81% 30.14 in 10.0 mi Calm Calm - N/A   Clear
6:50 AM - - - N/A% - 10.0 mi North - - N/A   Unknown
7:10 AM 42.8 °F - 39.2 °F 87% 30.14 in 9.0 mi Calm Calm - N/A   Clear
7:30 AM 42.8 °F - 39.2 °F 87% 30.15 in 7.0 mi Calm Calm - N/A   Clear
7:50 AM 44.6 °F 42.2 °F 41.0 °F 87% 30.15 in 8.0 mi North 4.6 mph - N/A   Clear
8:10 AM 44.6 °F 43.1 °F 42.8 °F 93% 30.16 in 8.0 mi North 3.5 mph - N/A   Clear
8:30 AM 48.2 °F - 44.6 °F 87% 30.17 in 8.0 mi Calm Calm - N/A   Clear
8:50 AM 50.0 °F - 44.6 °F 82% 30.17 in 8.0 mi Calm Calm - N/A   Clear
9:10 AM 51.8 °F - 46.4 °F 82% 30.18 in 8.0 mi Calm Calm - N/A   Clear
9:30 AM 53.6 °F - 46.4 °F 77% 30.18 in 8.0 mi North 3.5 mph - N/A   Clear
9:50 AM 55.4 °F - 46.4 °F 72% 30.18 in 8.0 mi North 3.5 mph - N/A   Clear
10:10 AM 57.2 °F - 46.4 °F 67% 30.18 in 9.0 mi North 3.5 mph - N/A   Clear
10:30 AM 59.0 °F - 48.2 °F 67% 30.18 in 9.0 mi Calm Calm - N/A   Clear
10:50 AM 62.6 °F - 46.4 °F 55% 30.17 in 10.0 mi NNW 3.5 mph - N/A   Clear
11:10 AM 62.6 °F - 48.2 °F 59% 30.18 in 10.0 mi NW 4.6 mph - N/A   Clear
11:30 AM 64.4 °F - 46.4 °F 52% 30.17 in 9.0 mi North 3.5 mph - N/A   Clear
11:50 AM 64.4 °F - 46.4 °F 52% 30.17 in 9.0 mi Calm Calm - N/A   Clear
12:10 PM 66.2 °F - 46.4 °F 49% 30.16 in 5.0 mi NW 3.5 mph - N/A   Haze
12:30 PM 66.2 °F - 46.4 °F 49% 30.16 in 9.0 mi WNW 6.9 mph - N/A   Clear
12:50 PM 68.0 °F - 44.6 °F 43% 30.15 in 10.0 mi West 4.6 mph - N/A   Clear
1:10 PM 68.0 °F - 46.4 °F 46% 30.15 in 9.0 mi WNW 3.5 mph - N/A   Clear
1:30 PM 69.8 °F - 46.4 °F 43% 30.14 in 10.0 mi West 5.8 mph - N/A   Clear
1:50 PM 69.8 °F - 46.4 °F 43% 30.13 in 9.0 mi NNE 3.5 mph - N/A   Clear
2:10 PM 71.6 °F - 46.4 °F 41% 30.11 in 10.0 mi Calm Calm - N/A   Unknown
2:30 PM 71.6 °F - 42.8 °F 35% 30.10 in 9.0 mi North 3.5 mph - N/A   Clear
2:50 PM 71.6 °F - 44.6 °F 38% 30.10 in 9.0 mi NE 3.5 mph - N/A   Clear
3:10 PM 71.6 °F - 44.6 °F 38% 30.09 in 10.0 mi NNW 3.5 mph - N/A   Clear
3:30 PM 71.6 °F - 46.4 °F 41% 30.09 in 10.0 mi NW 3.5 mph - N/A   Clear
3:50 PM 73.4 °F - 46.4 °F 38% 30.09 in 10.0 mi NNW 4.6 mph - N/A   Clear
4:10 PM 73.4 °F - 46.4 °F 38% 30.09 in 10.0 mi WNW 3.5 mph - N/A   Clear
4:30 PM 73.4 °F - 44.6 °F 36% 30.09 in 10.0 mi NNW 3.5 mph - N/A   Clear
4:50 PM 73.4 °F - 46.4 °F 38% 30.08 in 10.0 mi NNW 6.9 mph - N/A   Clear
5:10 PM 73.4 °F - 46.4 °F 38% 30.08 in 10.0 mi North 5.8 mph - N/A   Clear
5:30 PM 73.4 °F - 46.4 °F 38% 30.08 in 10.0 mi North 3.5 mph - N/A   Clear
5:50 PM 71.6 °F - 46.4 °F 41% 30.08 in 10.0 mi Calm Calm - N/A   Clear
6:10 PM 71.6 °F - 46.4 °F 41% 30.08 in 10.0 mi North 3.5 mph - N/A   Clear
6:30 PM 71.6 °F - 48.2 °F 43% 30.08 in 9.0 mi Calm Calm - N/A   Clear
6:50 PM 71.6 °F - 46.4 °F 41% 30.08 in 10.0 mi NNE 3.5 mph - N/A   Clear
7:10 PM 68.0 °F - 48.2 °F 49% 30.08 in 9.0 mi Calm Calm - N/A   Clear
7:30 PM 68.0 °F - 46.4 °F 46% 30.09 in 10.0 mi NNE 3.5 mph - N/A   Clear
7:50 PM 64.4 °F - 46.4 °F 52% 30.09 in 10.0 mi Calm Calm - N/A   Clear
8:10 PM 64.4 °F - 46.4 °F 52% 30.10 in 10.0 mi Calm Calm - N/A   Clear
8:30 PM 64.4 °F - 46.4 °F 52% 30.10 in 10.0 mi Calm Calm - N/A   Clear
8:50 PM 62.6 °F - 46.4 °F 55% 30.10 in 10.0 mi Calm Calm - N/A   Clear
9:10 PM 60.8 °F - 46.4 °F 59% 30.11 in 10.0 mi SSW 3.5 mph - N/A   Clear
9:30 PM 62.6 °F - 46.4 °F 55% 30.11 in 10.0 mi Calm Calm - N/A   Clear
9:50 PM 64.4 °F - 46.4 °F 52% 30.12 in 10.0 mi Calm Calm - N/A   Clear
10:10 PM 62.6 °F - 46.4 °F 55% 30.12 in 10.0 mi Calm Calm - N/A   Clear
10:30 PM 57.2 °F - 46.4 °F 67% 30.12 in 10.0 mi NE 3.5 mph - N/A   Clear
10:50 PM 55.4 °F - 46.4 °F 72% 30.13 in 10.0 mi Calm Calm - N/A   Clear
11:10 PM 55.4 °F - 46.4 °F 72% 30.13 in 10.0 mi Calm Calm - N/A   Clear
11:30 PM 55.4 °F - 46.4 °F 72% 30.13 in 10.0 mi Calm Calm - N/A   Clear
11:50 PM 57.2 °F - 46.4 °F 67% 30.14 in 10.0 mi Calm Calm - N/A   Clear